Other Public Products
Issued by NWS Grand Forks, ND

Home | Current Version | Previous Version | Text Only | Print | Product List | Glossary Off
Versions: 1 2 3 4 5 6 7 8 9 10 11 12 13 14 15 16 17 18 19 20 21 22 23 24 25 26 27 28 29 30 31 32 33 34 35 36 37 38 39 40 41 42 43 44 45 46 47 48 49 50

000
FPUS83 KFGF 041310
OPUFGF
PRAIRIE TO PINES WEATHER ROUNDUP
NATIONAL WEATHER SERVICE EASTERN NORTH DAKOTA/GRAND FORKS ND
800 AM CDT WED MAY 04 2016

 **SATELLITE DATA USED TO AUGMENT SKY COVER AT AUTOMATED STATIONS**
 *****  WEATHER ACROSS EASTERN NORTH DAKOTA  *****

CITY           SKY/WX    TMP DP  RH WIND       PRES   REMARKS
GRAND FORKS    MOSUNNY   44  36  73 NW9       30.10R
GRAND FORKS AF SUNNY     45  36  70 N9        30.11R
GRAND CITY NWS NOT AVBL
BUXTON         NOT AVBL
DEVILS LAKE    SUNNY     43  38  82 CALM      30.13R
FARGO          SUNNY     45  33  63 N9        30.08R
WAHPETON ARPT  SUNNY     45  32  61 N7        30.08R
$$

 *****  WEATHER ACROSS CENTRAL AND WESTERN NORTH DAKOTA  *****

CITY           SKY/WX    TMP DP  RH WIND       PRES   REMARKS
JAMESTOWN      SUNNY     45  35  68 NW8       30.11R
BISMARCK       SUNNY     43  37  79 CALM      30.13R
MINOT          MOSUNNY   51  33  50 SE6       30.07F
MINOT AFB      MOSUNNY   47  37  69 SE6       30.06F
GARRISON         N/A     48  33  56 S5        30.10S
WILLISTON      SUNNY     51  44  77 CALM      30.07R
DICKINSON      MOSUNNY   51  36  56 SW5       30.09S
HETTINGER      SUNNY     45  40  82 W3        30.14R
$$

 *****  OTHER OBSERVATIONS NORTHEAST NORTH DAKOTA  *****

CITY           SKY/WX    TMP DP  RH WIND       PRES   REMARKS
WALHALLA       FAIR      41  39  93 W6        30.12S
LANGDON        FAIR      45  34  65 CALM      30.12R
CAVALIER       FAIR      45  36  70 N6        30.12R
GRAFTON        FAIR      45  36  70 N8        30.13R
CANDO          FAIR      45  32  61 NW3       30.14R
FORT TOTTEN    NOT AVBL
ROLLA          FAIR      48  32  53 W9        30.12R
RUGBY          FAIR      46  36  66 CALM      30.11S
 ***** THE ABOVE OBSERVATIONS ARE NON NWS ARE NOT QUALITY
        CONTROLLED AND MAY MIS-REPORT RAIN FOR SNOW...
$$

 *****  OTHER OBSERVATIONS SOUTHEAST NORTH DAKOTA *****

CITY           SKY/WX    TMP DP  RH WIND       PRES   REMARKS
COOPERSTOWN    NOT AVBL
VALLEY CITY    FAIR      41  37  87 NW9       30.13R
OAKES            N/A    N/A N/A N/A MISG        N/A
GWINNER        FAIR      46  34  61 NW12      30.10R
BUFFALO        NOT AVBL
WYNDMERE         N/A     46  36  66 N9          N/A
 ***** THE ABOVE OBSERVATIONS ARE NON NWS ARE NOT QUALITY
       CONTROLLED AND MAY MIS-REPORT RAIN FOR SNOW...
$$

  *****  WEATHER ACROSS NORTHERN MINNESOTA  *****

CITY           SKY/WX    TMP DP  RH WIND       PRES   REMARKS
FLAG ISLAND    SUNNY     43  32  65 N8        30.07R
WARROAD        SUNNY     43  37  81 N7        30.08R
ROSEAU         SUNNY     43  37  81 N6        30.09R
HALLOCK        SUNNY     43  36  75 N6        30.10R
THF RVR FALLS  SUNNY     46  34  61 N8        30.09R
HALSTAD        NOT AVBL
FOSSTON        SUNNY     45  36  70 N5        30.07R
BAUDETTE       SUNNY     44  32  62 N8        30.06R
WASKISH        SUNNY     45  36  70 N7        30.06R
CROOKSTON      SUNNY     43  34  70 N6        30.10R
$$
  *****  WEATHER ACROSS CENTRAL AND WEST MINNESOTA  *****

CITY           SKY/WX    TMP DP  RH WIND       PRES   REMARKS
BEMIDJI        SUNNY     44  37  78 N5        30.04R
PARK RAPIDS    SUNNY     46  35  65 N9        30.03R
WADENA         SUNNY     45  36  70 N6        30.03S
DETROIT LAKES  SUNNY     43  36  75 N3        30.06R
MOORHEAD       SUNNY     43  32  65 N10       30.09R
FERGUS FALLS   SUNNY     46  37  71 CALM      30.04S
ELBOW LAKE     FAIR      44  38  78 NW3       30.06R
MORRIS MN      SUNNY     45  36  70 MISG      30.05R
STAPLES        SUNNY     46  34  61 N7        30.03R
WHEATON        SUNNY     48  36  61 NW7       30.09R
$$
  *****  WEATHER ELSEWHERE ACROSS MINNESOTA  *****

CITY           SKY/WX    TMP DP  RH WIND       PRES   REMARKS
DULUTH         SUNNY     45  32  60 N10       29.95R
INTRNTL FALLS  SUNNY     42  31  64 N12       30.02R
ELY            SUNNY     39  28  65 N8        29.96R
CLOQUET        SUNNY     45  32  61 N9        29.97R
BRAINERD       SUNNY     47  35  63 N10       30.02R
HIBBING        SUNNY     42  33  70 N10       29.98R
ALEXANDRIA     SUNNY     49  36  61 N6        30.05R
SAINT CLOUD    SUNNY     48  35  60 NW8       30.00R
MINNEAPOLIS    SUNNY     51  33  50 N13       29.98R
$$

  *****  WEATHER ACROSS SOUTH DAKOTA  *****

CITY           SKY/WX    TMP DP  RH WIND       PRES   REMARKS
SIOUX FALLS    SUNNY     48  36  63 N9        30.07R
BROOKINGS      SUNNY     43  34  70 NW7       30.06
WATERTOWN      SUNNY     47  35  63 NW7       30.07R
HURON          SUNNY     44  35  70 W13G20    30.11R
SISSETON         N/A     47  33  58 N15       30.08R
ABERDEEN       SUNNY     45  35  68 N9        30.12R
MITCHELL       SUNNY     45  37  73 N8        30.11R
PIERRE         SUNNY     48  37  65 CALM      30.13R
MOBRIDGE       SUNNY     48  38  68 N6        30.11R
RAPID CITY     SUNNY     51  39  63 NW6       30.16R
$$

  *****  SOME WEATHER IN NEARBY STATES *****

CITY           SKY/WX    TMP DP  RH WIND       PRES   REMARKS
GLASGOW MT     SUNNY     52  40  63 E12       30.01F
GREAT FALLS MT CLEAR     48  37  65 S3        30.01S
CHEYENNE WY    SUNNY     42  32  67 W12       30.27R
SCOTTSBLUFF NE SUNNY     44  39  82 NW8       30.20R
OMAHA NE       SUNNY     51  38  60 N12       30.00R
DES MOINES IA  SUNNY     53  37  54 N12       29.92R
DAVENPORT IA   PTSUNNY   49  44  83 N16G24    29.82R
CHICAGO IL     CLOUDY    48  42  80 N14       29.72R
EAU CLAIRE WI  SUNNY     48  35  60 N13       29.91R
LA CROSSE WI   SUNNY     49  38  65 N10       29.90R
$$

  *****  SOME NATIONAL WEATHER *****

CITY           SKY/WX    TMP DP  RH WIND       PRES   REMARKS
LA GUARDIA NY  CLOUDY    51  47  86 NE14      29.80F
RALEIGH NC     CLOUDY    60  57  89 N3        29.72S
ATLANTA GA     MOSUNNY   58  48  69 NW14      29.83S
NEW ORLEANS LA MOSUNNY   65  48  54 N14       29.97R
OKLAHOMA CITY  SUNNY     55  47  74 NW8       30.05R
ALBUQUERQUE NM CLEAR     51  30  44 N9        30.32R
SALT LAKE CITY MOCLDY    54  37  52 SE9       30.14R
LOS ANGELES CA CLOUDY    58  54  86 SW6       29.94R FOG
BOISE ID       PTCLDY    60  33  36 SE9       29.98R
SEATTLE WA     CLOUDY    53  45  74 N10       30.07S
$$

*** WEATHER ACROSS MANITOBA...SASKATCHEWAN AND ONTARIO ***
                ***ONTARIO***

CITY           SKY/WX    TMP DP  RH WIND       PRES   REMARKS
GERALDTON      FLURRIES  30  28  93 N12G22    29.90R WCI  21
THUNDER BAY    PTSUNNY   39  28  65 N13       29.93R
SIOUX LOOKOUT  MOSUNNY   34  25  69 N8        30.04R
TORONTO        PTSUNNY   50  41  71 SE7       29.73S
BIG TROUT LK   SUNNY     25  18  74 N5        30.08R WCI  19
PICKLE LAKE    MOSUNNY   30  19  64 N6        30.01S WCI  24
DRYDEN         SUNNY     36  27  69 NE10      30.03R
KENORA         MOSUNNY   39  27  60 N7        30.06R
$$
                *** MANITOBA***

CITY           SKY/WX    TMP DP  RH WIND       PRES   REMARKS
BRANDON        MOSUNNY   43  34  70 CALM      30.10R
DAUPHIN        SUNNY     45  32  61 CALM      30.05F
ISLAND LAKE    NOT AVBL
PILOT MOUND      N/A     45  34  65 CALM        N/A
THE PAS        CLOUDY    50  34  53 S14       29.88F
THOMPSON       PTSUNNY   39  25  56 VRB2      29.96F
WINNIPEG       SUNNY     43  37  81 VRB2      30.11R
LYNN LAKE      MOSUNNY   46  32  57 S7        29.77F
CHURCHILL      CLOUDY    30  23  74 S12       29.93F WCI  21
GILLAM         PTSUNNY   30  21  69 S8        30.04F WCI  23
$$
                ***SASKATCHEWAN***

CITY           SKY/WX    TMP DP  RH WIND       PRES   REMARKS
ESTEVAN        MOSUNNY   50  39  66 S5        30.04S
KINDERSLEY     SUNNY     54  41  62 S12       29.86F
LLOYDMINSTER   MOSUNNY   54  41  62 SW3       29.79R
PRINCE ALBERT  MOSUNNY   48  45  87 CALM      29.83F
REGINA         SUNNY     48  36  61 SE9       29.98S
YORKTON        SUNNY     50  32  50 SE14      29.97F
N. BATTLEFORD  SUNNY     63  43  48 S12       29.83F   C1F1C2F2C3F3C4F4C5F5C6F6C7F7C8F8C9F9CaFaCbFbCcFcCdFdCe!



USA.gov is the U.S. government's official web portal to all federal, state and local government web resources and services.